This is the latest recevied weather packets stored in our database for station/object N9BSW. If no packets are shown the sender has not sent any weather packets the latest 10 day(s).
| Time | Temp. | Humidity | Pressure | Rain* | Wind** | Luminosity | Snow |
|---|---|---|---|---|---|---|---|
| 1777676801 | 11.11° C | 58% | 1016.2 hPa | 0 mm | - | 77 W/m² | - |
| 1777676499 | 11.11° C | 56% | 1016.2 hPa | 0 mm | - | 171 W/m² | - |
| 1777676196 | 11.11° C | 57% | 1016.3 hPa | 0 mm | - | 219 W/m² | - |
| 1777675892 | 11.11° C | 58% | 1016.2 hPa | 0 mm | - | 152 W/m² | - |
| 1777675589 | 10.56° C | 59% | 1016.2 hPa | 0 mm | - | 276 W/m² | - |
| 1777675287 | 10.56° C | 61% | 1016.4 hPa | 0 mm | - | 168 W/m² | - |
| 1777674983 | 10.56° C | 63% | 1016.3 hPa | 0 mm | - | 242 W/m² | - |
| 1777674680 | 11.11° C | 56% | 1016.3 hPa | 0 mm | - | 107 W/m² | - |
| 1777674386 | 11.67° C | 52% | 1016.1 hPa | 0 mm | - | 109 W/m² | - |
| 1777674074 | 11.67° C | 53% | 1016.3 hPa | 0 mm | - | 60 W/m² | - |
| 1777673769 | 12.22° C | 51% | 1016.2 hPa | 0 mm | - | 86 W/m² | - |
| 1777673467 | 12.22° C | 50% | 1016.3 hPa | 0 mm | - | 133 W/m² | - |
| 1777673165 | 12.22° C | 49% | 1016.2 hPa | 0 mm | - | 159 W/m² | - |
| 1777672861 | 12.22° C | 48% | 1016.2 hPa | 0 mm | - | 170 W/m² | - |
| 1777672558 | 12.22° C | 49% | 1016.2 hPa | 0 mm | - | 322 W/m² | - |
| 1777672253 | 12.78° C | 50% | 1016.2 hPa | 0 mm | - | 181 W/m² | - |
| 1777671948 | 12.78° C | 48% | 1016 hPa | 0 mm | - | 239 W/m² | - |
| 1777671644 | 12.78° C | 50% | 1016.1 hPa | 0 mm | - | 514 W/m² | - |
| 1777671342 | 12.22° C | 52% | 1016 hPa | 0 mm | - | 298 W/m² | - |
| 1777671037 | 12.22° C | 50% | 1016.1 hPa | 0 mm | - | 292 W/m² | - |
| 1777670734 | 12.22° C | 52% | 1015.9 hPa | 0 mm | - | 297 W/m² | - |
| 1777670431 | 12.22° C | 50% | 1016.2 hPa | 0 mm | - | 313 W/m² | - |
| 1777670128 | 12.22° C | 50% | 1016.4 hPa | 0 mm | - | 266 W/m² | - |
| 1777669826 | 11.67° C | 51% | 1016.1 hPa | 0 mm | - | 194 W/m² | - |
| 1777669522 | 12.78° C | 50% | 1016.1 hPa | 0 mm | - | 129 W/m² | - |
* Rain latest hour (hover to see other rain measurements)
** Current wind speed in m/s (hover to see current wind gust speed)